Tracking 21612 objects as of 22-Oct-2020
HD Live streaming from Space Station
objects crossing your sky now

FLOCK 4V 18

Track FLOCK 4V 18 now!
10-day predictions
FLOCK 4V 18 is classified as:


NORAD ID: 46597
Int'l Code: 2020-061BG
Perigee: 522.3 km
Apogee: 534.8 km
Inclination: 97.5 °
Period: 95.1 minutes
Semi major axis: 6899 km
RCS: Unknown
Launch date: September 3, 2020
Source: United States (US)
Launch site: FRENCH GUIANA (FRGUI)
aabbcc
Your satellite tracking list
Your tracking list is empty




NASA's NSSDC Master Catalog

Two Line Element Set (TLE):
1 46597U 20061BG  20295.75260553  .00000461  00000-0  28263-4 0  9997
2 46597  97.4696   7.9820 0009101  63.7426 296.4752 15.14862356  2322
Source of the keplerian elements: AFSPC